Wind_Speed
24 24 24 23 22 22 22 21 21 20 19 17 15 12 9 7 6 7 8 9 12 15 17 19 21 23 24 26 28 31 33 34 34 34 35 35 35 35 37 36 35 36 35
23 23 24 23 22 22 22 21 21 20 19 18 16 14 12 9 7 7 7 7 9 11 13 16 18 21 22 24 26 28 30 31 32 33 34 34 34 35 36 37 36 36 36
22 23 23 23 23 22 22 22 21 21 20 18 17 15 14 11 8 7 6 6 7 8 10 13 15 18 19 21 23 25 27 29 30 32 32 33 33 34 34 35 35 35 34
22 22 22 22 22 22 22 21 21 21 20 19 17 16 14 13 10 8 7 5 5 6 7 9 11 14 16 18 20 21 24 26 28 30 32 32 32 32 33 33 33 33 33
21 21 21 22 22 22 22 21 21 21 21 20 19 17 15 13 11 9 8 6 5 4 5 6 9 12 14 16 18 19 22 24 26 28 29 30 31 32 32 32 32 32 32
21 21 21 21 21 21 21 21 21 21 21 20 20 18 17 15 14 11 10 8 6 5 5 5 7 9 12 14 15 17 20 22 24 26 28 28 29 31 31 31 31 32 32
20 21 21 21 21 21 21 21 21 21 20 20 20 19 18 16 14 12 11 10 7 6 5 5 6 8 10 11 13 15 17 19 21 23 25 27 28 29 30 30 31 31 32
20 21 21 21 21 21 21 20 20 20 20 19 19 18 18 17 15 14 12 11 9 7 6 5 5 6 8 10 12 13 15 17 19 21 22 25 26 28 28 28 29 30 30
20 21 21 21 21 21 21 20 20 20 20 19 18 18 17 17 16 14 13 12 10 9 8 7 5 5 6 8 10 12 14 17 18 19 21 22 24 26 27 27 28 29 30
20 21 21 20 20 21 21 21 20 20 19 19 18 18 17 17 16 15 14 13 12 10 9 8 7 6 6 7 9 10 12 14 16 18 20 21 22 24 26 26 27 28 29
21 21 21 21 21 21 21 21 21 20 19 19 18 18 17 16 16 15 14 13 12 11 10 9 8 7 7 7 7 9 10 12 14 16 18 20 21 23 25 26 27 27 28
22 22 22 22 22 22 21 21 21 20 20 20 19 18 17 17 16 15 14 14 13 12 11 11 10 9 8 8 7 8 9 10 12 14 15 17 19 21 23 26 26 26 27
23 23 23 23 23 22 22 21 21 21 20 20 19 19 18 17 16 15 15 14 13 13 12 12 11 11 10 9 9 9 10 11 11 13 14 16 17 19 21 23 25 26 27
24 24 24 24 23 23 22 22 22 21 21 20 20 19 19 18 18 17 16 15 15 14 14 13 12 12 11 10 10 10 10 11 12 13 15 16 17 18 20 22 23 25 26
26 26 25 25 24 24 23 23 23 23 22 21 21 20 19 19 19 18 18 17 17 16 16 15 15 14 13 12 12 12 12 12 13 14 15 16 18 19 20 21 22 23 24
27 27 26 26 25 25 24 24 24 24 23 23 22 21 20 20 19 19 19 19 19 18 18 18 17 17 16 15 15 14 14 14 15 15 16 17 17 18 20 21 22 23 24
28 28 27 27 26 26 25 25 25 25 25 24 24 23 22 22 22 21 21 21 21 21 21 20 20 19 19 19 18 18 18 18 18 18 18 19 19 20 20 21 22 23 24
30 29 29 28 28 27 27 26 26 26 26 27 26 26 25 25 25 25 24 24 24 24 23 23 23 22 22 22 22 22 22 21 21 21 21 21 22 22 22 22 23 24 24
31 31 30 30 29 29 29 29 29 28 28 28 28 29 28 28 28 28 27 27 27 27 27 27 27 27 26 26 26 25 26 26 26 25 25 25 25 25 25 25 25 26 26
33 33 32 32 31 31 31 31 31 31 31 30 30 30 31 31 31 31 31 30 30 30 30 31 31 31 31 31 31 30 30 30 30 30 29 29 28 28 28 28 28 28 29
35 35 34 34 33 33 33 33 34 34 34 33 33 32 32 32 33 33 34 34 34 34 34 35 35 35 36 35 35 34 34 34 34 34 34 34 33 32 32 31 31 32 32
37 37 36 36 35 35 36 36 36 36 35 35 35 35 34 34 35 35 36 36 37 37 38 39 39 39 40 40 40 40 39 39 39 38 38 38 38 37 36 36 35 35 35
39 38 38 38 37 37 37 37 37 37 37 37 37 37 37 37 38 38 39 40 40 41 42 43 43 43 44 44 44 44 45 45 44 44 43 43 42 42 41 40 40 39 39
40 40 39 39 38 38 38 38 38 39 38 39 39 39 39 40 41 41 42 43 44 44 45 46 46 47 48 48 48 48 49 49 49 49 48 48 47 46 46 45 45 44 43
41 41 40 40 40 39 40 40 40 40 40 41 41 41 42 43 44 44 45 46 47 47 48 49 49 50 51 51 52 52 53 53 53 53 53 53 52 50 50 49 48 48 47
42 42 41 41 41 41 41 41 42 42 43 43 43 44 44 45 46 47 48 49 50 50 51 52 52 53 53 54 54 54 55 55 56 56 56 56 55 54 54 53 52 51 51
Wind_Direction
8 9 9 10 11 12 13 12 12 12 11 10 7 2 351 337 316 291 275 259 249 246 243 240 238 237 235 235 235 233 231 230 230 230 231 231 232 233 232 232 232 233 235
6 7 9 9 10 11 12 12 12 12 13 13 11 9 5 353 339 322 297 271 257 252 248 244 241 238 236 235 235 233 232 231 230 230 230 231 232 232 232 233 232 232 233
4 5 7 8 9 9 10 11 11 12 12 13 12 11 8 2 351 341 324 294 271 260 253 247 243 237 234 234 233 231 231 231 231 230 229 231 231 230 231 231 231 232 232
360 2 3 5 7 8 8 9 10 10 11 12 12 10 10 8 2 356 346 324 301 283 265 249 241 235 232 232 231 230 230 231 232 232 232 233 233 232 232 233 232 233 233
355 358 360 2 3 5 6 7 9 10 11 11 11 11 10 9 4 359 355 348 330 309 285 261 245 236 233 232 232 231 232 234 234 234 233 234 235 232 233 234 234 235 235
352 354 356 358 0 2 3 4 6 8 9 10 11 11 10 9 8 4 2 358 346 330 307 275 256 243 239 238 237 235 235 236 235 235 234 234 233 231 232 233 235 236 237
350 352 353 355 357 359 360 1 3 3 5 7 9 10 10 9 9 9 7 3 357 344 328 302 272 255 245 241 242 240 238 236 235 234 233 233 234 232 232 233 234 235 238
347 349 351 353 355 356 357 358 359 360 0 2 4 6 7 8 8 8 4 3 0 355 345 332 297 271 253 247 245 242 240 238 236 234 233 232 233 234 234 234 235 236 238
341 344 346 348 351 352 353 354 354 355 356 357 359 1 3 4 4 3 3 2 0 356 348 340 325 295 269 258 252 248 245 241 238 237 235 235 233 232 236 237 237 238 239
337 339 341 342 344 346 348 350 350 351 351 352 353 355 358 360 360 359 359 357 355 351 346 341 334 316 296 279 266 255 248 244 242 240 238 237 237 236 236 236 238 239 241
332 333 335 336 338 339 341 343 345 347 347 348 348 348 349 351 353 354 354 355 354 351 347 342 336 326 311 297 281 266 256 250 247 244 243 242 241 240 238 238 240 242 242
327 328 329 330 332 334 335 337 338 340 341 343 343 342 342 343 344 345 346 347 346 345 342 338 333 324 313 303 291 274 263 258 251 247 247 247 245 244 242 242 242 243 244
322 323 325 326 327 328 329 330 332 333 334 335 336 336 336 336 336 337 337 338 338 339 338 335 331 325 317 309 299 285 271 266 260 256 254 251 248 248 246 245 244 242 244
318 319 320 321 322 323 324 324 325 325 326 327 328 329 329 329 329 329 328 328 328 328 329 329 328 327 318 308 301 293 282 274 266 261 258 255 252 251 251 249 247 245 245
314 315 317 317 317 318 318 319 319 319 319 320 321 322 322 321 321 321 321 320 318 318 317 317 316 315 313 308 301 296 290 282 274 269 263 259 257 255 253 252 250 248 247
310 311 312 312 313 313 313 314 315 315 315 315 315 316 315 315 315 314 314 314 313 311 311 310 309 307 305 302 299 296 292 287 281 277 271 266 262 259 257 255 253 251 250
307 307 307 308 309 309 310 311 311 312 312 312 311 311 310 310 309 309 308 308 308 308 307 306 304 302 299 296 294 292 289 286 283 279 275 270 266 263 260 258 255 253 252
304 304 304 304 305 305 306 307 308 308 308 308 307 307 306 305 304 304 303 303 303 302 302 301 300 298 296 292 289 288 286 284 282 279 276 272 269 266 263 260 257 256 255
300 301 301 301 302 302 302 303 304 304 304 303 303 303 302 302 301 300 300 299 298 298 297 296 296 295 293 290 288 284 282 280 279 277 275 272 269 267 264 262 259 257 257
297 297 298 298 299 299 299 301 301 301 302 301 300 299 299 298 298 298 297 297 296 295 294 293 292 291 290 288 286 284 281 278 277 275 274 272 270 268 265 262 260 258 258
294 295 295 296 296 296 297 298 299 299 298 298 298 296 295 295 295 295 295 295 294 293 292 291 290 288 287 286 284 282 281 278 276 274 272 271 269 267 264 262 261 259 257
292 292 293 293 294 294 295 296 296 297 296 296 296 295 294 293 293 293 293 293 292 292 291 290 288 287 286 284 283 281 279 277 275 274 272 270 269 266 264 261 259 258 256
290 290 291 291 292 293 293 294 295 295 295 295 295 294 294 293 293 293 292 292 291 290 290 289 288 286 285 284 282 280 278 276 275 273 271 269 268 265 263 261 258 257 255
289 289 290 290 291 291 292 293 294 294 294 294 294 294 293 293 293 293 293 292 291 290 290 289 287 286 285 284 282 280 278 276 274 272 270 268 266 264 262 260 258 256 254
287 288 288 289 289 290 291 292 293 293 293 293 293 293 293 293 293 294 293 293 292 291 290 289 288 286 285 283 282 280 278 276 274 271 269 267 264 262 260 259 257 255 253
286 287 287 287 288 288 289 291 292 292 292 292 292 293 293 294 294 294 294 294 293 292 291 290 289 288 286 284 282 280 278 276 273 271 268 265 263 261 258 257 256 254 252
Height
5802 5796 5791 5785 5780 5775 5770 5765 5761 5756 5751 5747 5744 5741 5740 5738 5738 5737 5738 5738 5739 5740 5741 5743 5745 5748 5750 5753 5756 5759 5763 5767 5772 5776 5779 5783 5788 5792 5796 5799 5803 5807 5810
5802 5797 5792 5786 5781 5777 5772 5767 5762 5758 5753 5749 5745 5742 5739 5738 5736 5736 5735 5735 5735 5736 5737 5738 5740 5741 5744 5746 5749 5752 5756 5760 5764 5768 5772 5776 5780 5784 5788 5792 5795 5799 5802
5803 5798 5793 5788 5783 5778 5773 5768 5764 5759 5755 5750 5747 5743 5740 5738 5736 5735 5733 5733 5732 5733 5733 5734 5734 5736 5738 5741 5743 5746 5749 5753 5757 5761 5765 5769 5773 5777 5780 5784 5787 5791 5794
5803 5798 5794 5789 5784 5779 5774 5770 5765 5760 5756 5752 5748 5744 5741 5738 5736 5734 5732 5731 5730 5730 5730 5730 5730 5731 5733 5735 5738 5741 5743 5747 5750 5754 5758 5761 5765 5769 5773 5776 5780 5783 5787
5803 5799 5794 5790 5785 5780 5776 5771 5766 5762 5757 5753 5749 5745 5742 5739 5736 5733 5732 5730 5729 5729 5728 5727 5728 5728 5730 5732 5734 5736 5738 5741 5744 5748 5751 5755 5758 5762 5766 5769 5773 5776 5779
5803 5799 5794 5790 5785 5781 5776 5772 5768 5763 5759 5755 5750 5746 5743 5739 5736 5733 5731 5730 5729 5728 5727 5726 5726 5726 5727 5728 5730 5731 5734 5736 5739 5741 5745 5748 5751 5755 5758 5762 5765 5769 5772
5802 5798 5794 5790 5785 5781 5777 5773 5768 5764 5760 5756 5752 5748 5744 5740 5737 5734 5732 5730 5728 5727 5726 5725 5724 5724 5725 5725 5727 5728 5729 5731 5734 5736 5739 5741 5744 5748 5751 5755 5758 5761 5765
5801 5798 5794 5790 5785 5781 5777 5773 5769 5765 5761 5757 5753 5749 5745 5741 5738 5735 5733 5730 5728 5727 5725 5724 5723 5723 5723 5723 5724 5725 5726 5727 5729 5731 5733 5735 5738 5741 5744 5748 5750 5754 5757
5800 5796 5793 5789 5785 5781 5777 5773 5769 5765 5761 5757 5753 5750 5746 5742 5739 5736 5734 5731 5729 5727 5725 5724 5723 5722 5721 5721 5721 5722 5722 5723 5724 5726 5728 5730 5732 5735 5738 5741 5744 5746 5749
5798 5795 5791 5787 5784 5780 5776 5772 5768 5764 5761 5757 5753 5750 5747 5743 5740 5737 5734 5732 5729 5727 5725 5723 5722 5721 5720 5719 5719 5719 5719 5719 5720 5722 5723 5725 5727 5729 5731 5734 5737 5739 5741
5796 5792 5789 5785 5782 5778 5775 5771 5767 5763 5760 5756 5753 5750 5746 5743 5740 5737 5735 5732 5730 5727 5725 5723 5721 5720 5718 5717 5717 5716 5716 5716 5717 5718 5719 5720 5722 5724 5726 5728 5730 5732 5734
5792 5789 5786 5783 5779 5776 5772 5769 5765 5762 5759 5755 5752 5749 5746 5743 5740 5737 5735 5732 5730 5727 5725 5723 5721 5719 5717 5716 5715 5714 5714 5714 5714 5715 5715 5716 5718 5719 5720 5722 5723 5725 5727
5789 5785 5782 5779 5776 5773 5769 5766 5763 5760 5757 5754 5750 5747 5744 5742 5739 5736 5734 5731 5729 5726 5724 5722 5720 5718 5716 5714 5713 5712 5712 5712 5712 5712 5712 5712 5713 5714 5715 5716 5717 5718 5720
5784 5781 5778 5775 5772 5769 5766 5763 5760 5757 5754 5751 5748 5746 5743 5740 5737 5735 5732 5729 5727 5725 5723 5720 5718 5716 5714 5713 5711 5710 5710 5709 5709 5708 5708 5708 5708 5709 5709 5710 5711 5712 5713
5779 5776 5773 5770 5767 5764 5761 5759 5756 5753 5750 5748 5745 5743 5740 5737 5734 5732 5729 5727 5724 5722 5720 5718 5716 5714 5712 5711 5709 5708 5707 5706 5705 5704 5704 5704 5704 5704 5704 5705 5705 5706 5707
5774 5771 5768 5765 5762 5760 5757 5754 5751 5748 5746 5743 5741 5738 5736 5734 5731 5728 5726 5724 5721 5719 5717 5715 5713 5711 5709 5708 5706 5705 5703 5702 5701 5700 5700 5699 5699 5699 5699 5699 5699 5700 5700
5768 5765 5762 5760 5757 5754 5751 5749 5746 5743 5740 5738 5735 5733 5731 5728 5726 5724 5722 5719 5717 5715 5713 5711 5709 5707 5705 5703 5702 5700 5699 5698 5696 5695 5695 5694 5694 5693 5693 5693 5693 5693 5694
5761 5758 5755 5753 5750 5748 5745 5743 5740 5737 5734 5731 5729 5726 5724 5722 5720 5718 5716 5714 5712 5709 5707 5705 5703 5701 5699 5698 5696 5695 5693 5692 5691 5690 5689 5688 5687 5687 5686 5686 5686 5686 5687
5753 5750 5748 5745 5743 5740 5738 5735 5733 5730 5728 5725 5722 5719 5717 5715 5713 5711 5709 5707 5704 5702 5700 5698 5696 5694 5692 5690 5689 5687 5686 5685 5684 5683 5682 5681 5680 5680 5679 5679 5679 5679 5679
5744 5742 5740 5737 5735 5732 5730 5727 5725 5722 5720 5717 5715 5712 5710 5707 5704 5702 5700 5698 5696 5694 5692 5690 5687 5685 5684 5682 5680 5679 5677 5676 5675 5674 5673 5672 5672 5671 5671 5671 5670 5671 5671
5735 5733 5730 5728 5726 5723 5721 5718 5716 5713 5711 5708 5706 5703 5701 5699 5696 5693 5691 5688 5686 5684 5682 5679 5677 5675 5673 5671 5670 5668 5667 5665 5664 5663 5662 5662 5661 5661 5661 5661 5661 5661 5661
5725 5723 5720 5718 5716 5713 5711 5708 5706 5703 5701 5698 5696 5693 5691 5689 5686 5683 5681 5678 5676 5673 5670 5668 5665 5663 5661 5659 5657 5655 5654 5652 5651 5651 5650 5649 5649 5649 5649 5649 5649 5650 5650
5714 5712 5710 5707 5705 5703 5700 5698 5695 5692 5690 5687 5685 5682 5679 5677 5674 5672 5669 5666 5663 5660 5658 5655 5652 5649 5647 5644 5642 5640 5639 5637 5636 5635 5635 5635 5635 5635 5635 5635 5636 5636 5637
5702 5700 5698 5696 5693 5691 5689 5686 5684 5681 5678 5676 5673 5670 5668 5665 5662 5659 5656 5653 5650 5646 5643 5640 5637 5634 5631 5628 5626 5623 5621 5620 5618 5618 5617 5617 5618 5618 5619 5619 5620 5621 5623
5690 5688 5686 5684 5681 5679 5677 5674 5671 5669 5666 5663 5660 5658 5655 5652 5648 5645 5641 5638 5634 5631 5627 5623 5620 5617 5613 5610 5607 5604 5602 5600 5598 5598 5597 5597 5598 5599 5600 5601 5603 5604 5606
5677 5675 5673 5671 5669 5667 5664 5662 5659 5656 5653 5650 5647 5644 5641 5637 5634 5630 5626 5622 5618 5614 5610 5606 5602 5598 5594 5591 5587 5584 5581 5579 5577 5575 5575 5576 5577 5578 5579 5581 5583 5585 5587